N8WEL Weather Reports


time (UTC)temp
C
wind
direction
speed
KPH
gust
KPH
rain 1hr
cm
rain 24hr
cm
rain mn
cm
humidity
%
barometer
mb
20260504151030 18 0 0.0 8.0 0.00 0.03 0.00 58 1007.2
20260504150900 17 0 0.0 17.7 0.00 0.03 0.00 58 1007.4
20260504141323 16 185 1.6 17.7 0.00 0.03 0.00 60 1007.6
20260504140821 16 167 3.2 17.7 0.00 0.03 0.00 60 1007.6
20260504140321 16 190 1.6 14.5 0.00 0.03 0.00 59 1007.8
20260504130652 14 0 0.0 16.1 0.00 0.03 0.00 62 1008.4
20260504130152 13 0 0.0 12.9 0.00 0.03 0.00 62 1008.5
20260504120255 11 0 0.0 0.0 0.00 0.03 0.00 67 1008.6
20260504045628 10 0 0.0 1.6 0.00 0.03 0.00 64 1010.7
20260504045131 10 0 0.0 1.6 0.00 0.03 0.00 64 1010.7
20260504044628 10 0 0.0 0.0 0.00 0.03 0.00 65 1010.7
20260504044128 10 0 0.0 0.0 0.00 0.03 0.00 65 1010.6
20260504043640 10 0 0.0 0.0 0.00 0.03 0.00 65 1010.7
20260504043131 10 0 0.0 0.0 0.00 0.03 0.00 65 1010.8
20260504042628 10 0 0.0 0.0 0.00 0.03 0.00 66 1010.9
20260504042128 10 0 0.0 0.0 0.00 0.03 0.00 66 1010.9
20260504041629 10 0 0.0 0.0 0.00 0.03 0.00 66 1010.9
20260504041046 10 0 0.0 4.8 0.00 0.03 0.00 66 1011.1
20260504035622 10 0 0.0 0.0 0.00 0.03 0.00 67 1011.2
20260504035222 10 0 0.0 0.0 0.00 0.03 0.00 67 1011.3
20260504034900 10 0 0.0 0.0 0.00 0.03 0.00 67 1011.3
20260504034859 10 0 0.0 0.0 0.00 0.03 0.00 67 1011.3
20260504032806 10 0 0.0 0.0 0.00 0.03 0.00 68 1011.5
20260504031619 10 0 0.0 6.4 0.00 0.03 0.00 68 1011.6
20260504025142 10 0 0.0 0.0 0.00 0.03 0.00 69 1011.8
20260504024211 10 0 0.0 0.0 0.00 0.03 0.00 68 1011.9
20260504023626 10 0 0.0 1.6 0.00 0.03 0.00 68 1011.8
20260504023116 10 0 0.0 1.6 0.00 0.03 0.00 69 1011.9
20260504022115 10 0 0.0 0.0 0.00 0.03 0.00 69 1011.9
20260504021621 10 0 0.0 3.2 0.00 0.03 0.00 69 1012.0
20260504021133 10 0 0.0 3.2 0.00 0.03 0.00 69 1012.1
20260504020617 10 0 0.0 0.0 0.00 0.03 0.00 70 1012.1
20260504020308 10 0 0.0 3.2 0.00 0.03 0.00 70 1012.1
20260504015822 10 0 0.0 3.2 0.00 0.03 0.00 70 1012.1
20260504015121 9 0 0.0 0.0 0.00 0.03 0.00 70 1012.1
20260504014615 9 0 0.0 0.0 0.00 0.03 0.00 71 1012.0
20260504014115 9 0 0.0 0.0 0.00 0.03 0.00 72 1012.0
20260504013115 9 0 0.0 0.0 0.00 0.03 0.00 71 1011.9
20260504012454 9 0 0.0 8.0 0.00 0.03 0.00 73 1011.9
20260504011518 9 0 0.0 1.6 0.00 0.03 0.00 75 1012.1
20260504010957 9 0 0.0 1.6 0.00 0.03 0.00 76 1012.1
20260504010455 9 0 0.0 0.0 0.00 0.03 0.00 77 1012.1
20260504010030 9 0 0.0 0.0 0.00 0.03 0.00 78 1012.0
20260504005454 9 0 0.0 0.0 0.00 0.03 0.00 77 1012.1
20260504004954 9 0 0.0 0.0 0.00 0.03 0.00 77 1012.0
20260504004150 9 0 0.0 0.0 0.00 0.03 0.00 78 1011.9
20260504003855 9 0 0.0 0.0 0.00 0.03 0.00 79 1011.9
20260504003853 9 0 0.0 0.0 0.00 0.03 0.00 79 1012.2
20260504000755 9 0 0.0 0.0 0.00 0.03 0.00 79 1012.2
20260504000540 9 0 0.0 0.0 0.00 0.03 0.00 79 1012.2
20260503235650 9 0 0.0 0.0 0.00 0.03 0.00 79 1012.0
20260503235150 9 0 0.0 0.0 0.00 0.03 0.00 79 1012.0
20260503233515 9 0 0.0 0.0 0.00 0.03 0.03 80 1012.1
20260503232016 9 0 0.0 0.0 0.03 0.03 0.03 82 1012.4
20260503231025 9 0 0.0 0.0 0.03 0.03 0.03 83 1012.4
20260503230515 9 0 0.0 0.0 0.03 0.03 0.03 82 1012.5
20260503225542 9 0 0.0 0.0 0.03 0.03 0.03 80 1013.0
20260503225234 9 0 0.0 0.0 0.03 0.03 0.03 80 1013.1
20260503225232 9 0 0.0 0.0 0.03 0.03 0.03 75 1013.2
20260503222657 10 0 0.0 11.3 0.00 0.00 0.00 71 1014.1
20260503221735 10 0 0.0 11.3 0.00 0.00 0.00 68 1014.3
20260503221233 11 0 0.0 14.5 0.00 0.00 0.00 67 1014.2
20260503220851 11 0 0.0 14.5 0.00 0.00 0.00 62 1014.4
20260503220229 11 0 0.0 16.1 0.00 0.00 0.00 59 1014.3
20260503215905 11 247 1.6 16.1 0.00 0.00 0.00 56 1014.2
20260503215228 12 0 0.0 27.4 0.00 0.00 0.00 54 1014.1
20260503214728 12 238 6.4 27.4 0.00 0.00 0.00 51 1013.9
20260503214228 -17 0.0 0.0 0.00 0.00 0.00 1013.7
20260503213729 -17 0.0 0.0 0.00 0.00 0.00 1013.6
20260503213228 -17 0.0 0.0 0.00 0.00 0.00 1013.7
20260503212728 -17 0.0 0.0 0.00 0.00 0.00 1013.5
20260503212228 -17 0.0 0.0 0.00 0.00 0.00 1013.5
20260503211728 -17 0.0 0.0 0.00 0.00 0.00 1013.3
20260503211228 -17 0.0 0.0 0.00 0.00 0.00 1013.2
20260503210728 -17 0.0 0.0 0.00 0.00 0.00 1013.3
20260503205728 -17 0.0 0.0 0.00 0.00 0.00 1013.3
20260503205228 -17 0.0 0.0 0.00 0.00 0.00 1013.4
20260503204728 -17 0.0 0.0 0.00 0.00 0.00 1013.4
20260503201728 -17 0.0 0.0 0.00 0.00 0.00 1013.5
20260503201228 -17 0.0 0.0 0.00 0.00 0.00 1013.5
20260503200728 -17 0.0 0.0 0.00 0.00 0.00 1013.5
20260503200228 -17 0.0 0.0 0.00 0.00 0.00 1013.7
20260503195728 -17 0.0 0.0 0.00 0.00 0.00 1013.7
20260503195228 -17 0.0 0.0 0.00 0.00 0.00 1013.7
20260503194728 -17 0.0 0.0 0.00 0.00 0.00 1013.7
20260503194228 -17 0.0 0.0 0.00 0.00 0.00 1013.7
20260503192728 -17 0.0 0.0 0.00 0.00 0.00 1014.1
20260503192228 -17 0.0 0.0 0.00 0.00 0.00 1014.1
20260503191728 -17 0.0 0.0 0.00 0.00 0.00 1014.3
20260503190728 -17 0.0 0.0 0.00 0.00 0.00 1014.5
20260503190228 -17 0.0 0.0 0.00 0.00 0.00 1014.5
20260503185728 -17 0.0 0.0 0.00 0.00 0.00 1014.8
20260503185228 -17 0.0 0.0 0.00 0.00 0.00 1014.8
20260503184728 -17 0.0 0.0 0.00 0.00 0.00 1014.8